This demonstration page uses our WeatherBlox Daily Observations layout. Learn more.

41.55636, -103.73856

Hourly Observations for May 18, 2015

Temp ( °F °C ) Dew Point ( °F °C ) Humidity (%) Winds ( mph kmh ) Pressure ( in mb ) Visibility ( mi km ) Precip ( " mm )
12:53 am 00:53 Clear 43 6 36 2 76 76 WNW 9 15 30.3 1026 10 16.09344 0 0
1:53 am 01:53 Partly Cloudy 41 5 36 2 81 81 NW 12 19 30.3 1026 10 16.09344 0 0
2:39 am 02:39 Mostly Cloudy 41 5 36 2 81 81 WNW 8 13 30.33 1027 10 16.09344 0 0
2:48 am 02:48 Mostly Cloudy 41 5 36 2 81 81 NW 3 6 30.33 1027 10 16.09344 0 0
2:53 am 02:53 Cloudy 41 5 36 2 81 81 N 3 6 30.33 1027 10 16.09344 0 0
3:03 am 03:03 Cloudy 43 6 37 3 81 81 NW 6 9 30.33 1027 10 16.09344 0 0
3:53 am 03:53 Cloudy 43 6 37 3 81 81 NW 7 11 30.33 1027 10 16.09344 0 0
4:17 am 04:17 Cloudy 43 6 37 3 81 81 N 7 11 30.33 1027 10 16.09344 0 0
4:50 am 04:50 Cloudy 43 6 36 2 76 76 NNW 7 11 30.33 1027 10 16.09344 0 0
4:53 am 04:53 Cloudy 43 6 36 2 76 76 NNW 7 11 30.33 1027 10 16.09344 0 0
5:05 am 05:05 Cloudy 43 6 36 2 76 76 N 8 13 30.36 1028 10 16.09344 0 0
5:45 am 05:45 Cloudy 43 6 36 2 76 76 NNW 7 11 30.36 1028 10 16.09344 0 0
5:53 am 05:53 Cloudy 43 6 36 2 76 76 NNW 7 11 30.36 1028 10 16.09344 0 0
6:21 am 06:21 Cloudy 43 6 36 2 76 76 NNW 13 20 30.36 1028 10 16.09344 0 0
6:53 am 06:53 Cloudy 45 7 36 2 71 71 NW 10 17 30.33 1027 10 16.09344 0 0
7:53 am 07:53 Cloudy 48 9 36 2 62 62 NNW 9 15 30.36 1028 10 16.09344 0 0
8:21 am 08:21 Cloudy 46 8 36 2 66 66 N 12 19 30.36 1028 10 16.09344 0 0
8:53 am 08:53 Cloudy 48 9 36 2 62 62 N 10 17 30.36 1028 10 16.09344 0 0
9:53 am 09:53 Mostly Cloudy 52 11 36 2 54 54 NNW 6 9 30.33 1027 10 16.09344 0 0
10:53 am 10:53 Mostly Cloudy 52 11 36 2 54 54 NW 5 7 30.33 1027 10 16.09344 0 0
11:53 am 11:53 Cloudy 55 13 36 2 47 47 Calm 30.3 1026 10 16.09344 0 0
12:53 pm 12:53 Cloudy 55 13 32 0 41 41 Calm 30.3 1026 10 16.09344 0 0
1:53 pm 13:53 Cloudy 57 14 34 1 41 41 N 3 6 30.24 1024 10 16.09344 0 0
2:53 pm 14:53 Cloudy 61 16 36 2 39 39 undefined N/A 30.21 1023 10 16.09344 0 0
3:53 pm 15:53 Cloudy 57 14 37 3 48 48 SSE 9 15 30.21 1023 10 16.09344 0 0
4:53 pm 16:53 Cloudy 57 14 39 4 51 51 SE 9 15 30.21 1023 10 16.09344 0 0
5:53 pm 17:53 Cloudy 57 14 39 4 51 51 ENE 13 20 30.21 1023 10 16.09344 0 0
6:53 pm 18:53 Cloudy 55 13 37 3 51 51 E 13 20 30.21 1023 10 16.09344 0 0
7:53 pm 19:53 Cloudy 55 13 37 3 51 51 E 15 24 30.21 1023 10 16.09344 0 0
8:53 pm 20:53 Cloudy 54 12 37 3 54 54 E 15 24 30.24 1024 10 16.09344 0 0
9:53 pm 21:53 Cloudy 54 12 37 3 54 54 E 13 20 30.24 1024 10 16.09344 0 0
10:53 pm 22:53 Cloudy 54 12 37 3 54 54 E 13 20 30.24 1024 10 16.09344 0 0
11:53 pm 23:53 Cloudy 52 11 36 2 54 54 E 13 20 30.24 1024 10 16.09344 0 0

Powered by AerisWeather